Location: Casilda
(33.0440°S, 61.1680°W)
Time: 07:09:51
(UTC-03:00)

ISS - Pass Details

Date: 14 October 2021
Orbit: 417 x 423 km, 51.6° (Epoch: 17 October)

Event Time Altitude Azimuth Distance (km) Brightness Sun altitude
Rises 21:15:36 0° 301° (WNW) 2,371 0.5 -24.2°
Reaches altitude 10° 21:17:45 10° 294° (WNW) 1,514 -0.5 -24.6°
Enters shadow 21:20:04 34° 264° (W) 731 -2.1 -25.0°
